Epoch 2021 Apr. 16.0 TT = JDT 2459320.5
T 2021 Apr. 18.54577 TT Rudenko
q 3.3552246 (2000.0) P Q
z -0.0000969 Peri. 341.74243 -0.47268715 -0.76105732
+/-0.0000063 Node 226.58150 -0.71294910 +0.03396860
e 1.0003250 Incl. 142.29339 -0.51794830 +0.64779463
From 212 observations 2020 May 1-Nov. 2, mean residual 0".4.
Finding Charts
Magnitudes Graph
m1 = 6.5 + 5 log d + 10.0 log r
The orbital elements are published on M.P.E.C. 2020-W26.
The charts are made with StellaNavigator Ver.10 (AstroArts).
The magnitudes graphs are made with Comet for Windows.
Copyright(C) Seiichi Yoshida (comet@aerith.net). All rights reserved.